Regional Weather Roundup
Issued by NWS

Home | Current Version | Previous Version | Text Only | Print | Product List | Glossary Off
Versions: 1 2 3 4 5 6 7 8 9 10 11 12 13 14 15 16 17 18 19 20 21 22 23 24 25 26 27 28 29 30 31 32 33 34 35 36 37 38 39 40 41 42 43 44 45 46 47 48 49 50

000
ASUS43 KOAX 241602
RWRNE

WEATHER ROUNDUP FOR NEBRASKA
NATIONAL WEATHER SERVICE OMAHA NE
1100 AM CDT SAT JUN 24 2017

NOTES: SATELLITE DATA IS BEING USED TO AUGMENT CLOUD COVER ABOVE
       12000 FEET.
       "FAIR" INDICATES FEW OR NO CLOUDS BELOW 12,000 FEET WITH NO
       SIGNIFICANT WEATHER AND/OR OBSTRUCTIONS TO VISIBILITY.

  * THESE STATIONS DO NOT REPORT WEATHER SUCH AS RAIN...SNOW OR FOG.

NEZ001>004-019>022-054>056-241700-
NEBRASKA PANHANDLE

CITY           SKY/WX    TMP DP  RH WIND       PRES   REMARKS
SCOTTSBLUFF    CLOUDY    63  38  39 MISG      30.32R
ALLIANCE       SUNNY     67  33  28 W8        30.30S
CHADRON        SUNNY     69  34  27 MISG      30.29S
GORDON         FAIR      64  35  34 NW12      30.30R
KIMBALL        PTSUNNY   65  38  37 E3        30.34S
SIDNEY         CLOUDY    66  38  35 S9        30.32S
$$

NEZ057>060-069>072-079>082-241700-
SOUTHWEST NEBRASKA

CITY           SKY/WX    TMP DP  RH WIND       PRES   REMARKS
NORTH PLATTE   PTSUNNY   71  36  27 SW9       30.28F
IMPERIAL       CLOUDY    66  41  40 S8        30.31S
LEXINGTON      CLOUDY    70  40  34 W7        30.28S
MCCOOK         CLOUDY    65  45  48 CALM      30.30S
OGALLALA       CLOUDY    66  36  33 S8        30.30S
$$

NEZ005>010-023>029-035>040-094-241700-
NORTH CENTRAL NEBRASKA

CITY           SKY/WX    TMP DP  RH WIND       PRES   REMARKS
VALENTINE      MOSUNNY   73  27  18 NW21G28   30.24S
AINSWORTH      SUNNY     71  33  25 NW20G25   30.24S
BROKEN BOW     PTSUNNY   71  40  32 SW12      30.25F
O`NEILL        SUNNY     72  37  28 W16G24    30.21S
ORD            SUNNY     71  36  27 W12G18    30.22S
THEDFORD       SUNNY     72  34  24 NW16G26   30.27S
$$

NEZ041-046>049-061>064-073>077-083>087-241700-
SOUTH CENTRAL NEBRASKA

CITY           SKY/WX    TMP DP  RH WIND       PRES   REMARKS
GRAND ISLAND   CLOUDY    70  41  34 W9        30.25S
AURORA         SUNNY     70  39  32 W7        30.25S
HASTINGS       MOSUNNY   71  35  26 VRB7      30.27R
HEBRON         SUNNY     73  33  22 CALM      30.25S
HOLDREGE       CLOUDY    68  35  30 W6        30.28S
KEARNEY *      MOSUNNY   70  36  28 W7        30.27S
$$

NEZ011>018-030>034-042>045-241700-
NORTHEAST NEBRASKA

CITY           SKY/WX    TMP DP  RH WIND       PRES   REMARKS
NORFOLK        SUNNY     72  38  29 W17G26    30.18S
ALBION         SUNNY     73  35  24 W12G18    30.21F
BLAIR          SUNNY     71  43  36 SW14G21   30.18S
FREMONT        SUNNY     73  41  32 W13G18    30.19S
TEKAMAH        SUNNY     75  40  28 W18       30.16S
WAYNE          SUNNY     74  36  24 W23       30.16S
$$

NEZ050>053-065>068-078-088>093-241700-
SOUTHEAST NEBRASKA

CITY           SKY/WX    TMP DP  RH WIND       PRES   REMARKS
LINCOLN        SUNNY     74  39  28 W10       30.22S
OMAHA EPPLEY   SUNNY     73  43  33 W13       30.18S
BEATRICE       SUNNY     71  42  35 CALM      30.24S
FALLS CITY     SUNNY     71  44  37 SW8       30.23R
NEBRASKA CITY  SUNNY     69  47  44 W8        30.23R
PLATTSMOUTH    SUNNY     71  40  33 W9        30.21R
$$

NEZ044-045-051>053-067-241700-
OMAHA AREA

CITY           SKY/WX    TMP DP  RH WIND       PRES   REMARKS
OMAHA EPPLEY   SUNNY     73  43  33 W13       30.18S
BLAIR          SUNNY     71  43  36 SW14G21   30.18S
FREMONT        SUNNY     73  41  32 W13G18    30.19S
MILLARD        SUNNY     73  47  39 W8        30.19S
OFFUTT AFB     SUNNY     73  42  32 W12G21    30.19R
PLATTSMOUTH    SUNNY     71  40  33 W9        30.21R
WAHOO          FAIR      74  35  24 W14       30.20R
$$




USA.gov is the U.S. government's official web portal to all federal, state and local government web resources and services.